Time,TemperatureF,DewpointF,PressureIn,WindDirection,WindDirectionDegrees,WindSpeedMPH,WindSpeedGustMPH,Humidity,HourlyPrecipIn,Conditions,Clouds,dailyrainin,SoftwareType,DateUTC
2013-09-16 00:14:00,64.0,61.0,30.31,West,279,11.0,12.0,90,0.00,,,0.00,,2013-09-16 04:14:00,
2013-09-16 00:24:00,65.0,62.0,30.31,WNW,287,14.0,15.0,90,0.00,,,0.00,,2013-09-16 04:24:00,
2013-09-16 00:43:00,65.0,62.0,30.30,WNW,300,15.0,16.0,90,0.00,,,0.00,,2013-09-16 04:43:00,
2013-09-16 00:54:00,65.0,62.0,30.31,WNW,300,14.0,16.0,90,0.00,,,0.00,,2013-09-16 04:54:00,
2013-09-16 01:13:00,65.0,62.0,30.31,WNW,290,14.0,16.0,90,0.00,,,0.00,,2013-09-16 05:13:00,
2013-09-16 01:22:00,65.0,62.0,30.30,WNW,293,16.0,16.0,91,0.00,,,0.00,,2013-09-16 05:22:00,
2013-09-16 01:44:00,65.0,62.0,30.30,WNW,293,16.0,16.0,91,0.00,,,0.00,,2013-09-16 05:44:00,
2013-09-16 01:53:00,65.0,63.0,30.29,West,281,16.0,18.0,92,0.00,,,0.00,,2013-09-16 05:53:00,
2013-09-16 02:12:00,65.0,63.0,30.29,WNW,291,17.0,18.0,92,0.00,,,0.00,,2013-09-16 06:12:00,
2013-09-16 02:22:00,65.0,63.0,30.30,WNW,297,14.0,17.0,92,0.00,,,0.00,,2013-09-16 06:22:00,
2013-09-16 02:52:00,64.0,62.0,30.29,WNW,291,14.0,15.0,93,0.00,,,0.00,,2013-09-16 06:52:00,
2013-09-16 03:12:00,65.0,63.0,30.29,WNW,291,16.0,16.0,93,0.00,,,0.00,,2013-09-16 07:12:00,
2013-09-16 03:22:00,65.0,63.0,30.29,NW,304,15.0,18.0,93,0.00,,,0.00,,2013-09-16 07:22:00,
2013-09-16 03:43:00,64.0,62.0,30.29,WNW,299,12.0,16.0,93,0.00,,,0.00,,2013-09-16 07:43:00,
2013-09-16 03:52:00,64.0,62.0,30.29,NW,304,12.0,15.0,93,0.00,,,0.00,,2013-09-16 07:52:00,
2013-09-16 04:12:00,64.0,62.0,30.29,NW,309,11.0,14.0,93,0.00,,,0.00,,2013-09-16 08:12:00,
2013-09-16 04:22:00,64.0,61.0,30.29,NW,313,13.0,15.0,91,0.00,,,0.00,,2013-09-16 08:22:00,
2013-09-16 04:42:00,64.0,62.0,30.29,NW,308,10.0,14.0,92,0.00,,,0.00,,2013-09-16 08:42:00,
2013-09-16 04:52:00,64.0,62.0,30.28,NW,306,9.0,12.0,93,0.00,,,0.00,,2013-09-16 08:52:00,
2013-09-16 05:12:00,64.0,62.0,30.28,NW,309,9.0,10.0,93,0.00,,,0.00,,2013-09-16 09:12:00,
2013-09-16 05:22:00,64.0,62.0,30.28,NW,320,10.0,13.0,94,0.00,,,0.00,,2013-09-16 09:22:00,
2013-09-16 05:43:00,64.0,62.0,30.28,NNW,333,11.0,12.0,94,0.00,,,0.00,,2013-09-16 09:43:00,
2013-09-16 05:53:00,64.0,62.0,30.29,NNW,330,12.0,13.0,94,0.00,,,0.00,,2013-09-16 09:53:00,
2013-09-16 06:12:00,64.0,62.0,30.28,NNW,335,11.0,12.0,93,0.00,,,0.00,,2013-09-16 10:12:00,
2013-09-16 06:23:00,65.0,63.0,30.29,NW,326,12.0,13.0,92,0.00,,,0.00,,2013-09-16 10:23:00,
2013-09-16 07:12:00,64.0,62.0,30.29,NW,320,13.0,14.0,93,0.00,,,0.00,,2013-09-16 11:12:00,
2013-09-16 07:42:00,64.0,62.0,30.29,NNW,336,13.0,17.0,92,0.00,,,0.00,,2013-09-16 11:42:00,
2013-09-16 07:52:00,64.0,62.0,30.29,NNW,342,14.0,15.0,92,0.00,,,0.00,,2013-09-16 11:52:00,
2013-09-16 08:12:00,64.0,62.0,30.30,NNW,346,13.0,15.0,92,0.00,,,0.00,,2013-09-16 12:12:00,
2013-09-16 08:52:00,63.0,59.0,30.30,NNE,13,9.0,11.0,88,0.00,,,0.00,,2013-09-16 12:52:00,
2013-09-16 09:11:00,63.0,60.0,30.30,North,352,7.0,10.0,90,0.00,,,0.00,,2013-09-16 13:11:00,
2013-09-16 09:22:00,64.0,59.0,30.30,North,11,9.0,9.0,83,0.00,,,0.00,,2013-09-16 13:22:00,
2013-09-16 09:52:00,64.0,58.0,30.31,NNE,12,6.0,8.0,81,0.00,,,0.00,,2013-09-16 13:52:00,
2013-09-16 10:11:00,64.0,58.0,30.31,NNE,26,8.0,9.0,80,0.00,,,0.00,,2013-09-16 14:11:00,
2013-09-16 10:22:00,64.0,58.0,30.31,North,11,8.0,12.0,81,0.00,,,0.00,,2013-09-16 14:22:00,
2013-09-16 10:52:00,66.0,59.0,30.32,NE,40,4.0,7.0,77,0.00,,,0.00,,2013-09-16 14:52:00,
2013-09-16 11:12:00,67.0,58.0,30.32,ENE,58,3.0,4.0,73,0.00,,,0.00,,2013-09-16 15:12:00,
2013-09-16 11:22:00,67.0,59.0,30.32,ENE,60,2.0,4.0,76,0.00,,,0.00,,2013-09-16 15:22:00,
2013-09-16 11:43:00,67.0,60.0,30.32,ENE,67,1.0,3.0,79,0.00,,,0.00,,2013-09-16 15:43:00,
2013-09-16 11:53:00,66.0,59.0,30.32,NE,40,4.0,5.0,77,0.00,,,0.00,,2013-09-16 15:53:00,
2013-09-16 12:12:00,65.0,58.0,30.32,NNE,16,3.0,5.0,78,0.00,,,0.00,,2013-09-16 16:12:00,
2013-09-16 12:23:00,66.0,58.0,30.32,NW,311,0.0,4.0,76,0.00,,,0.00,,2013-09-16 16:23:00,
2013-09-16 12:43:00,67.0,58.0,30.32,North,11,2.0,3.0,74,0.00,,,0.00,,2013-09-16 16:43:00,
2013-09-16 12:52:00,68.0,57.0,30.32,NNE,13,3.0,4.0,68,0.00,,,0.00,,2013-09-16 16:52:00,
2013-09-16 13:12:00,68.0,58.0,30.31,WNW,283,2.0,5.0,70,0.00,,,0.00,,2013-09-16 17:12:00,
2013-09-16 13:23:00,68.0,59.0,30.31,NNE,13,11.0,14.0,73,0.00,,,0.00,,2013-09-16 17:23:00,
2013-09-16 13:42:00,67.0,58.0,30.31,NNE,26,9.0,11.0,73,0.00,,,0.00,,2013-09-16 17:42:00,
2013-09-16 13:53:00,67.0,58.0,30.31,NNE,15,8.0,10.0,74,0.00,,,0.00,,2013-09-16 17:53:00,
2013-09-16 14:12:00,68.0,60.0,30.30,NNE,19,6.0,9.0,75,0.00,,,0.00,,2013-09-16 18:12:00,
2013-09-16 14:22:00,68.0,59.0,30.30,NNE,12,9.0,12.0,73,0.00,,,0.00,,2013-09-16 18:22:00,
2013-09-16 14:42:00,68.0,57.0,30.29,NNE,27,11.0,14.0,67,0.00,,,0.00,,2013-09-16 18:42:00,
2013-09-16 14:52:00,69.0,58.0,30.29,NNE,26,9.0,14.0,67,0.00,,,0.00,,2013-09-16 18:52:00,
2013-09-16 15:11:00,69.0,58.0,30.29,North,11,8.0,12.0,68,0.00,,,0.00,,2013-09-16 19:11:00,
2013-09-16 15:22:00,69.0,58.0,30.28,NE,54,9.0,12.0,69,0.00,,,0.00,,2013-09-16 19:22:00,
2013-09-16 15:42:00,69.0,59.0,30.28,NNE,13,7.0,12.0,70,0.00,,,0.00,,2013-09-16 19:42:00,
2013-09-16 15:53:00,70.0,59.0,30.27,NE,35,6.0,11.0,69,0.00,,,0.00,,2013-09-16 19:53:00,
2013-09-16 16:11:00,70.0,60.0,30.27,NNE,23,6.0,11.0,70,0.00,,,0.00,,2013-09-16 20:11:00,
2013-09-16 16:22:00,70.0,61.0,30.26,NE,46,7.0,10.0,72,0.00,,,0.00,,2013-09-16 20:22:00,
2013-09-16 16:43:00,70.0,60.0,30.26,NNE,33,6.0,12.0,70,0.00,,,0.00,,2013-09-16 20:43:00,
2013-09-16 16:52:00,71.0,60.0,30.26,ENE,70,3.0,9.0,68,0.00,,,0.00,,2013-09-16 20:52:00,
2013-09-16 17:11:00,70.0,59.0,30.26,East,81,6.0,9.0,67,0.00,,,0.00,,2013-09-16 21:11:00,
2013-09-16 17:22:00,70.0,59.0,30.26,NE,41,12.0,13.0,67,0.00,,,0.00,,2013-09-16 21:22:00,
2013-09-16 17:56:00,70.0,59.0,30.26,NE,39,14.0,15.0,67,0.00,,,0.00,,2013-09-16 21:56:00,
2013-09-16 18:13:00,70.0,59.0,30.26,NE,49,11.0,15.0,68,0.00,,,0.00,,2013-09-16 22:13:00,
2013-09-16 18:24:00,69.0,58.0,30.26,NNE,33,13.0,15.0,68,0.00,,,0.00,,2013-09-16 22:24:00,
2013-09-16 18:43:00,69.0,58.0,30.26,NE,36,13.0,17.0,68,0.00,,,0.00,,2013-09-16 22:43:00,
2013-09-16 18:54:00,69.0,53.0,30.26,NNE,19,19.0,22.0,57,0.00,,,0.00,,2013-09-16 22:54:00,
2013-09-16 19:12:00,69.0,52.0,30.26,NNE,26,22.0,25.0,55,0.00,,,0.00,,2013-09-16 23:12:00,
2013-09-16 19:22:00,69.0,55.0,30.26,NNE,33,20.0,22.0,62,0.00,,,0.00,,2013-09-16 23:22:00,
2013-09-16 19:43:00,68.0,56.0,30.26,NE,43,18.0,23.0,66,0.00,,,0.00,,2013-09-16 23:43:00,
2013-09-16 19:53:00,68.0,58.0,30.27,ENE,58,16.0,19.0,71,0.00,,,0.00,,2013-09-16 23:53:00,
2013-09-16 20:11:00,68.0,58.0,30.27,ENE,73,10.0,14.0,70,0.00,,,0.00,,2013-09-17 00:11:00,
2013-09-16 20:22:00,68.0,60.0,30.28,East,84,8.0,10.0,75,0.00,,,0.00,,2013-09-17 00:22:00,
2013-09-16 20:42:00,68.0,60.0,30.28,East,91,7.0,10.0,75,0.00,,,0.00,,2013-09-17 00:42:00,
2013-09-16 20:52:00,68.0,60.0,30.29,East,88,7.0,8.0,75,0.00,,,0.00,,2013-09-17 00:52:00,
2013-09-16 21:11:00,68.0,59.0,30.29,East,85,6.0,8.0,74,0.00,,,0.00,,2013-09-17 01:11:00,
2013-09-16 21:22:00,67.0,60.0,30.30,East,88,8.0,10.0,77,0.00,,,0.00,,2013-09-17 01:22:00,
2013-09-16 21:42:00,67.0,60.0,30.31,East,84,8.0,9.0,78,0.00,,,0.00,,2013-09-17 01:42:00,
2013-09-16 21:52:00,67.0,59.0,30.31,ESE,110,10.0,12.0,75,0.00,,,0.00,,2013-09-17 01:52:00,
2013-09-16 22:12:00,67.0,57.0,30.31,SE,124,7.0,11.0,71,0.00,,,0.00,,2013-09-17 02:12:00,
2013-09-16 22:22:00,65.0,59.0,30.31,ESE,106,14.0,18.0,80,0.00,,,0.00,,2013-09-17 02:22:00,
2013-09-16 22:42:00,64.0,58.0,30.32,East,81,13.0,17.0,82,0.00,,,0.00,,2013-09-17 02:42:00,
2013-09-16 22:53:00,64.0,57.0,30.32,East,86,19.0,21.0,79,0.00,,,0.00,,2013-09-17 02:53:00,
2013-09-16 23:12:00,63.0,57.0,30.32,ESE,108,16.0,19.0,81,0.00,,,0.00,,2013-09-17 03:12:00,
2013-09-16 23:23:00,63.0,57.0,30.32,East,93,20.0,25.0,80,0.00,,,0.00,,2013-09-17 03:23:00,
2013-09-16 23:45:00,63.0,57.0,30.32,East,101,19.0,22.0,81,0.00,,,0.00,,2013-09-17 03:45:00,
2013-09-16 23:54:00,64.0,57.0,30.32,East,91,20.0,22.0,78,0.00,,,0.00,,2013-09-17 03:54:00,